Regional Weather Roundup
Issued by NWS Kansas City/Pleasant Hill, MO

Home | Current Version | Previous Version | Graphics & Text | Print | Product List | Glossary Off
Versions: 1 2 3 4 5 6 7 8 9 10 11 12 13 14 15 16 17 18 19 20 21 22 23 24 25 26 27 28

000
ASUS43 KEAX 211210
RWREAX

WEATHER ROUNDUP FOR EASTERN KANSAS AND NORTHWEST MISSOURI
NATIONAL WEATHER SERVICE KANSAS CITY/PLEASANT HILL MO
700 AM CDT MON MAY 21 2018

KSZ040-057-103>105-MOZ028-029-037-043-211300-
...KANSAS CITY METROPOLITAN AREA...

CITY           SKY/WX    TMP DP  RH WIND       PRES   REMARKS
K.C. INTL      CLOUDY    59  59 100 W3        30.05R FOG
6HR MIN TEMP:  59; 6HR MAX TEMP:  63;

K.C. DOWNTOWN  CLOUDY    62  59  90 W6        30.04R FOG
6HR MIN TEMP:  62; 6HR MAX TEMP:  66;

LEES SUMMIT    CLOUDY    62  62 100 W6        30.05R FOG
6HR MIN TEMP:  61; 6HR MAX TEMP:  65;

OLATHE - IXD   CLOUDY    61  60  97 W6        30.06R FOG
6HR MIN TEMP:  60; 6HR MAX TEMP:  62;

OLATHE - OJC   CLOUDY    60  60 100 W5        30.05R FOG
6HR MIN TEMP:  59; 6HR MAX TEMP:  62;

LAWRENCE       CLOUDY    60  58  92 W9        30.07R

$$

MOZ001>008-011>017-020>025-030>033-038>040-044>046-053-054-211300-
...NORTHERN AND CENTRAL MISSOURI...

CITY           SKY/WX    TMP DP  RH WIND       PRES   REMARKS
ST. JOSEPH     CLOUDY    59  59 100 W6        30.04R FOG
6HR MIN TEMP:  59; 6HR MAX TEMP:  62;

WHITEMAN AFB   PTSUNNY   65  64  99 W5        29.99S FOG
6HR MIN TEMP:  64; 6HR MAX TEMP:  66; 6HR PCP:  0.01;

CLINTON        NOT AVBL
SEDALIA        CLOUDY    66  66 100 W6        30.04S FOG
6HR MIN TEMP:  65; 6HR MAX TEMP:  67;

WARSAW         NOT AVBL
CHILLICOTHE      N/A     65  63  93 VRB5      30.03R
6HR MIN TEMP:  65; 6HR MAX TEMP:  68; 6HR PCP:  0.01;

KIRKSVILLE     CLOUDY    65  65 100 S9        30.01S
6HR MIN TEMP:  64; 6HR MAX TEMP:  66; 6HR PCP:  0.01;


$$

MOZ041-047>049-056>058-063>065-088>090-097-211300-
...EASTERN AND SOUTHERN MISSOURI...

CITY           SKY/WX    TMP DP  RH WIND       PRES   REMARKS
ST. LOUIS INTL CLOUDY    66  65  96 S3        30.06R
6HR MIN TEMP:  65; 6HR MAX TEMP:  67; 6HR PCP:  0.12;

SPIRIT OF STL  CLOUDY    65  64  97 CALM      30.05R
COLUMBIA       CLOUDY    65  63  93 S6        30.04R
JEFFERSON CITY CLOUDY    66  64  93 E3        30.04R
ROLLA          CLOUDY    64  63  96 S6        30.07R
OSAGE BEACH    CLOUDY    65  64  97 CALM      30.06R
SPRINGFIELD    CLOUDY    67  65  93 S5        30.05R FOG
BRANSON        CLOUDY    66  66 100 CALM      30.08R FOG
JOPLIN         CLOUDY    63  61  93 CALM      30.07R FOG
WEST PLAINS    CLOUDY    66  65  96 CALM      30.08S

$$

IAZ060-094-KSZ022-034>040-054-083-096-NEZ052-066-093-211300-
...KANSAS...SOUTHEAST NEBRASKA AND IOWA...

CITY           SKY/WX    TMP DP  RH WIND       PRES   REMARKS
TOPEKA         CLOUDY    58  57  97 W7        30.07R
6HR MIN TEMP:  58; 6HR MAX TEMP:  62;

MANHATTAN      CLOUDY    56  53  90 NW5       30.09S
EMPORIA        CLOUDY    57  54  89 W6        30.09R
CHANUTE        CLOUDY    60  58  92 NW7       30.07S
WICHITA        MOCLDY    58  56  93 N6        30.09R
OMAHA          DRZL/FOG  57  55  93 NW7       30.04R VSB 3/4
LINCOLN        MOCLDY    53  51  93 W6        30.07R FOG
FALLS CITY     CLOUDY    57  54  89 W8        30.05R
LAMONI         CLOUDY    60  58  92 NW7       30.01R FOG
DES MOINES     CLOUDY    59  57  93 NE7       30.01S FOG

$$





USA.gov is the U.S. government's official web portal to all federal, state and local government web resources and services.